Change the Weather History Date:

Saturday, October 22, 2011

  Actual Average (KDLZ) Record (KDLZ)
Temperature  
Mean Temperature 44 °F -  
Max Temperature 55 °F 59 °F 83 °F (1953)
Min Temperature 33 °F 38 °F 20 °F (1974)
Degree Days  
Heating Degree Days 21    
Moisture  
Dew Point 36 °F    
Average Humidity 77    
Maximum Humidity 100    
Minimum Humidity 45    
Precipitation  
Precipitation 0.00 in - - ()
Sea Level Pressure  
Sea Level Pressure 30.13 in    
Wind  
Wind Speed 3 mph (SW)    
Max Wind Speed 8 mph    
Max Gust Speed -    
Visibility 8 miles    
Events      
Averages and records for this station are not official NWS values.
T = Trace of Precipitation, MM = Missing Value Source: NWS Daily Summary

Daily Weather History Graph

Daily Weather History Graph

Search for Another Location

Airport or City:

Trip Planner

Search our weather history database for the weather conditions in past years. The results will help you decide how hot, cold, wet, or windy it might be!

Date:

Astronomy

Oct. 22, 2011 Rise Set
Actual Time 7:50 AM EDT 6:42 PM EDT
Civil Twilight 7:22 AM EDT 7:09 PM EDT
Nautical Twilight 6:50 AM EDT 7:41 PM EDT
Astronomical Twilight 6:19 AM EDT 8:13 PM EDT
Moon 2:45 AM EDT (10/22) 4:00 PM EDT (10/22)
Length of Visible Light 11h 47m
Length of Day
10h 51m
Waning Crescent, 24% of the Moon is Illuminated
Oct 22
Waning Crescent
Oct 26
New
Nov 2
First Quarter
Nov 10
Full
Nov 18
Last Quarter

Hourly Weather History & Observations

Time (EDT) Temp. Windchill Dew Point Humidity Pressure Visibility Wind Dir Wind Speed Gust Speed Precip Events Conditions
12:53 AM 45.0 °F - 42.1 °F 90% 30.12 in 10.0 mi Calm Calm - N/A   Overcast
1:53 AM 45.0 °F 43.5 °F 41.0 °F 86% 30.12 in 10.0 mi SSW 3.5 mph - N/A   Overcast
3:53 AM 42.1 °F 40.2 °F 39.0 °F 89% 30.12 in 10.0 mi West 3.5 mph - N/A   Mostly Cloudy
4:53 AM 39.9 °F 36.7 °F 37.9 °F 93% 30.12 in 9.0 mi WSW 4.6 mph - N/A   Clear
5:53 AM 37.0 °F - 35.1 °F 93% 30.14 in 5.0 mi Calm Calm - N/A   Clear
6:53 AM 35.1 °F 32.2 °F 34.0 °F 96% 30.14 in 3.0 mi SW 3.5 mph - N/A   Clear
7:51 AM 33.8 °F 30.8 °F 33.8 °F 100% 30.12 in 2.0 mi South 3.5 mph - N/A   Clear
7:53 AM 34.0 °F 29.8 °F 33.1 °F 96% 30.15 in 2.0 mi South 4.6 mph - N/A   Clear
8:10 AM 33.8 °F 30.8 °F 33.8 °F 100% 30.13 in 1.5 mi South 3.5 mph - N/A   Clear
8:36 AM 35.6 °F 32.8 °F 35.6 °F 100% 30.13 in 2.5 mi South 3.5 mph - N/A   Clear
8:53 AM 37.0 °F - 37.0 °F 100% 30.16 in 2.5 mi Calm Calm - N/A   Clear
9:09 AM 39.2 °F - 37.4 °F 93% 30.14 in 3.0 mi Calm Calm - N/A   Clear
9:53 AM 44.1 °F 42.5 °F 39.9 °F 85% 30.17 in 6.0 mi West 3.5 mph - N/A   Clear
10:53 AM 48.9 °F - 39.9 °F 71% 30.16 in 10.0 mi Variable 3.5 mph - N/A   Clear
11:53 AM 51.1 °F - 37.0 °F 59% 30.15 in 10.0 mi WSW 5.8 mph - N/A   Clear
12:53 PM 53.1 °F - 36.0 °F 52% 30.14 in 10.0 mi West 8.1 mph - N/A   Clear
1:53 PM 55.0 °F - 36.0 °F 49% 30.12 in 10.0 mi WSW 8.1 mph - N/A   Clear
2:53 PM 54.0 °F - 35.1 °F 49% 30.12 in 10.0 mi West 5.8 mph - N/A   Clear
3:53 PM 54.0 °F - 34.0 °F 47% 30.11 in 10.0 mi West 6.9 mph - N/A   Clear
4:53 PM 55.0 °F - 34.0 °F 45% 30.10 in 10.0 mi WSW 4.6 mph - N/A   Clear
5:53 PM 54.0 °F - 33.1 °F 45% 30.11 in 10.0 mi West 4.6 mph - N/A   Clear
6:53 PM 50.0 °F - 35.1 °F 57% 30.12 in 10.0 mi Calm Calm - N/A   Clear
7:53 PM 46.9 °F - 37.9 °F 71% 30.12 in 10.0 mi Calm Calm - N/A   Clear
8:53 PM 45.0 °F - 37.9 °F 76% 30.12 in 10.0 mi Calm Calm - N/A   Clear
9:53 PM 43.0 °F 41.3 °F 36.0 °F 76% 30.11 in 10.0 mi SSE 3.5 mph - N/A   Clear
10:53 PM 43.0 °F - 35.1 °F 74% 30.11 in 10.0 mi Calm Calm - N/A   Clear
11:53 PM 41.0 °F 39.0 °F 35.1 °F 79% 30.11 in 10.0 mi South 3.5 mph - N/A   Clear